Wind_Speed
20 19 19 19 19 19 19 19 19 18 19 19 19 20 20 21 21 20 20 20 20 21 21 21 22 22 23 23 23 23 23 23 22 22 22 21 21 20 19 18 18 18 17 17 17 17 17 17 17 17 18 18 18 19 19 19 20 21 23 23 23 23 20 22 24 25 29 24 29 38 28 21 27 29 28 28 28 31 31 30 33 34 34 36 34 29 25 22
20 19 19 19 19 19 19 19 18 19 19 19 20 20 21 21 21 21 20 20 20 21 21 21 21 22 22 23 23 23 22 23 22 22 22 21 21 20 19 19 19 18 18 18 18 18 17 17 17 17 18 18 19 20 18 19 20 21 22 23 24 22 19 29 35 32 31 30 33 34 26 24 26 28 27 26 27 28 30 31 33 34 36 37 34 31 27 23
20 20 20 19 19 19 19 19 19 19 19 20 20 20 21 20 20 20 20 20 20 20 20 20 21 21 22 22 22 22 22 22 22 22 21 21 21 20 19 19 19 19 19 19 18 18 18 18 18 18 19 19 19 20 19 19 20 21 23 23 22 23 27 36 35 29 29 31 34 31 26 25 25 27 26 25 26 27 28 31 32 33 35 35 33 30 27 25
20 20 20 19 19 19 19 19 19 19 19 20 20 20 20 19 20 19 19 19 19 19 19 20 20 20 21 21 21 22 22 22 22 21 21 21 21 21 20 21 21 20 20 19 19 19 19 19 19 19 19 20 20 20 20 20 19 22 23 22 23 28 33 34 29 28 31 30 30 28 25 25 25 24 25 25 26 26 28 30 30 32 34 34 32 27 25 26
21 20 20 19 19 19 19 19 19 19 19 19 19 19 18 18 18 18 18 18 18 18 18 18 18 19 20 20 21 21 21 22 21 21 21 21 21 21 21 22 22 21 20 20 20 20 20 20 20 20 20 21 21 19 21 21 20 22 21 21 26 30 29 29 29 29 29 27 26 26 25 25 23 22 24 24 25 27 27 29 28 31 35 34 31 27 25 25
21 20 19 19 19 18 18 18 18 18 18 18 17 17 17 17 17 17 17 16 16 16 16 16 17 17 18 19 19 20 20 21 20 20 20 21 21 22 22 22 22 22 21 21 21 21 21 21 21 21 21 22 22 20 23 22 19 21 21 22 27 28 26 27 28 26 26 25 25 26 25 23 21 23 24 22 26 28 25 25 26 30 33 31 31 31 31 29
20 20 19 19 18 18 18 18 18 17 17 16 16 16 15 15 15 15 15 14 14 14 14 14 15 15 16 17 18 19 19 20 19 19 20 20 20 21 21 22 22 22 22 22 22 22 22 22 22 23 22 23 23 23 24 21 18 21 23 25 25 24 25 26 26 25 24 24 25 25 23 22 22 24 23 21 27 27 24 25 26 29 29 27 29 30 32 31
20 19 19 18 18 18 17 17 16 16 16 15 15 14 14 13 13 13 13 13 12 12 12 12 13 13 14 16 17 18 18 18 18 19 19 19 19 19 20 20 21 22 22 22 22 21 22 22 23 23 23 25 24 24 23 20 20 24 25 25 24 23 24 25 25 25 23 24 25 23 23 23 23 23 21 22 26 24 24 26 26 28 26 25 27 29 29 28
19 18 18 17 17 17 17 16 16 15 15 15 14 13 13 12 12 11 11 11 11 11 11 11 12 12 13 15 16 16 17 17 17 17 17 17 17 17 18 18 19 20 20 20 21 21 23 22 23 23 23 24 23 22 22 21 24 25 25 25 24 23 25 25 25 23 22 24 24 23 24 24 23 21 22 25 25 23 24 24 25 26 25 25 26 28 28 26
18 17 17 17 17 16 16 16 15 15 15 14 14 13 12 12 11 10 10 10 10 10 11 11 11 12 13 13 15 15 15 15 16 15 15 15 16 16 16 16 17 18 18 19 20 21 22 22 22 22 22 23 22 22 22 23 25 24 23 25 24 24 26 25 25 23 24 25 24 23 24 24 22 20 22 25 23 21 23 24 24 24 25 25 26 26 25 25
17 17 17 17 16 16 16 16 15 15 14 14 14 13 13 12 11 11 10 9 9 10 10 11 11 12 12 13 14 14 14 15 15 14 14 15 15 15 15 15 16 16 17 18 18 19 20 20 21 21 22 22 21 23 22 24 25 22 22 25 25 26 27 26 26 25 25 26 25 23 24 24 20 19 24 23 20 20 22 24 23 22 23 24 25 25 25 25
17 16 16 16 16 16 16 16 15 15 14 14 14 13 13 13 12 12 11 10 9 9 9 10 11 12 12 13 13 13 13 14 13 13 14 14 14 14 14 15 15 16 16 17 17 18 19 19 20 21 22 21 21 23 22 24 24 23 24 24 25 27 27 26 27 26 25 27 27 23 23 24 17 18 27 23 19 21 21 22 22 21 22 22 23 22 24 24
16 16 16 16 16 16 16 16 15 15 14 14 14 14 13 13 13 13 12 11 10 10 9 10 10 11 12 12 13 13 14 14 13 13 13 13 13 13 14 14 15 15 16 16 16 17 17 18 18 19 20 20 22 22 22 23 23 24 24 23 25 24 26 28 28 26 26 28 28 22 18 18 12 17 28 25 21 22 20 21 21 21 21 21 21 19 22 24
16 16 16 16 16 16 16 16 16 15 14 14 14 14 14 13 14 13 13 12 11 11 11 11 11 11 11 12 13 13 14 14 14 14 13 13 13 13 14 14 15 15 15 15 14 15 15 16 16 17 19 19 21 20 21 21 21 23 20 21 22 15 20 29 27 24 26 30 27 20 14 10 10 18 24 22 22 22 20 22 22 21 22 22 22 20 23 26
17 17 17 17 17 17 17 17 16 16 15 15 14 14 14 14 14 14 13 13 12 12 11 12 12 11 11 11 12 12 13 14 14 14 14 13 13 13 14 14 14 14 14 14 13 13 13 14 15 16 16 17 18 17 19 19 19 21 16 16 15 9 18 29 26 22 23 28 27 20 13 9 16 26 23 19 22 22 20 23 23 22 23 24 24 24 26 28
17 17 17 17 17 18 18 18 17 16 16 15 15 15 14 14 14 14 14 14 13 13 12 13 12 12 12 11 11 12 12 13 14 14 14 14 13 13 13 13 14 13 13 12 11 12 11 13 14 14 15 15 16 15 15 14 15 17 13 11 10 12 18 25 22 21 23 28 24 18 14 11 20 34 32 23 22 23 21 22 25 24 26 26 25 26 27 27
17 17 17 18 18 18 18 18 18 18 17 17 16 15 15 14 15 15 15 15 14 14 13 13 13 13 13 12 12 13 12 13 13 13 13 13 13 14 14 13 13 13 13 11 11 11 11 12 12 13 14 13 14 13 11 9 10 14 12 12 12 16 15 17 16 17 23 27 18 15 21 18 18 29 33 29 22 22 22 22 25 25 26 26 26 27 27 27
17 18 18 18 18 18 19 19 19 19 18 18 17 16 16 15 15 16 16 16 15 15 14 14 14 14 13 13 13 13 13 13 12 12 13 13 13 13 13 13 13 13 13 12 11 11 11 11 11 12 12 12 13 10 7 9 8 10 13 14 12 19 18 11 11 12 17 22 15 14 23 24 16 17 21 25 22 20 22 24 25 25 25 25 27 28 28 28
17 17 17 18 18 18 19 19 19 19 19 18 17 17 16 16 16 16 16 16 16 16 15 15 15 15 14 14 14 13 13 13 13 13 12 13 13 13 13 13 13 13 12 12 12 12 11 11 11 11 11 12 14 13 12 15 13 8 12 12 9 14 17 10 14 19 17 18 18 16 18 22 19 16 16 20 22 21 23 26 26 25 26 26 27 27 30 31
17 17 17 17 18 18 19 19 19 19 19 19 18 18 17 17 17 17 17 17 16 16 16 16 16 15 15 14 14 13 13 14 14 14 13 13 13 13 13 13 13 13 13 13 13 13 13 12 12 13 12 11 13 15 14 14 13 11 11 10 9 11 13 12 19 25 20 17 18 14 13 19 22 20 17 17 20 22 24 26 26 26 27 26 27 27 30 33
17 17 17 17 18 18 18 19 19 19 19 19 19 18 18 17 17 17 17 17 17 17 18 17 16 17 16 15 15 14 14 14 15 14 14 14 13 13 13 13 14 13 14 14 14 15 14 13 15 16 13 11 12 13 13 13 14 13 12 11 11 10 12 15 18 18 17 17 15 12 13 19 24 23 23 20 19 20 23 26 25 26 27 27 28 28 29 33
17 17 16 17 17 18 18 18 18 19 19 19 19 18 18 18 18 17 18 18 18 18 19 18 18 18 18 17 16 15 15 15 15 15 15 14 14 14 13 13 14 14 15 14 15 16 14 15 20 18 14 13 14 13 13 14 13 12 12 12 13 12 12 17 20 15 15 16 14 13 14 17 20 22 25 22 18 19 22 24 25 26 27 27 28 28 28 30
16 16 16 16 17 17 18 18 18 18 18 19 19 19 18 18 18 18 18 19 19 19 20 19 19 20 19 18 17 16 16 17 17 16 16 15 16 15 14 14 14 14 14 14 15 14 10 13 18 16 15 17 15 15 15 14 14 14 13 15 15 13 13 18 22 20 18 17 17 18 18 17 16 18 23 22 19 20 20 21 23 24 25 26 26 26 26 27
16 16 16 16 16 17 17 18 18 18 18 18 19 19 19 19 19 19 19 20 20 21 20 20 21 21 21 19 17 17 18 18 18 17 16 16 16 15 16 16 15 14 15 15 15 13 13 18 17 12 14 17 16 17 17 16 17 17 17 18 16 13 15 18 21 21 17 16 19 21 23 20 17 19 23 23 23 23 21 22 23 23 23 24 24 24 24 25
16 16 16 16 17 16 17 18 18 17 18 19 19 19 19 20 20 20 20 20 21 21 20 20 22 22 21 19 18 18 18 18 19 19 17 17 17 17 17 16 13 13 15 17 14 11 17 23 18 14 14 15 16 17 18 18 19 19 19 21 21 19 20 19 21 23 18 16 19 20 22 19 16 19 21 23 24 22 22 23 23 24 24 24 25 24 25 25
17 17 17 17 18 17 18 18 17 18 19 19 19 19 20 20 19 20 19 18 18 19 19 20 21 21 21 19 18 17 18 20 21 20 18 19 18 17 16 15 15 15 15 15 14 16 21 21 16 16 15 14 16 17 18 19 19 20 19 20 24 26 27 24 24 26 22 20 22 21 21 18 16 19 21 23 24 22 22 24 25 26 26 26 27 27 27 27
19 19 18 18 18 18 19 18 18 19 19 19 19 19 20 19 18 18 16 15 16 18 19 20 20 20 20 19 17 17 17 19 20 20 19 19 19 17 16 16 15 17 17 14 14 19 23 20 17 16 14 14 16 16 18 18 18 21 21 21 22 24 28 27 25 26 24 23 26 25 22 21 20 20 21 24 23 20 22 25 25 27 28 28 29 30 30 29
20 19 19 19 19 18 19 18 18 18 18 19 19 19 20 19 18 16 14 15 18 18 19 20 19 19 19 18 17 18 18 18 18 18 18 19 19 17 18 17 13 13 16 15 16 22 23 20 18 16 15 15 13 15 19 17 18 22 22 21 21 21 24 24 22 24 23 24 27 25 23 25 25 22 25 30 26 22 24 26 27 27 28 29 29 30 30 29
20 19 18 18 17 17 17 17 17 17 18 18 18 18 19 17 16 13 12 16 17 16 18 19 19 19 18 17 17 18 18 18 18 18 18 18 18 17 18 18 15 13 14 15 18 23 22 19 18 17 16 15 14 16 19 17 17 21 21 20 20 20 21 21 21 20 21 25 25 22 23 25 23 20 23 29 26 22 23 26 28 30 29 28 28 28 30 30
20 19 18 17 17 17 17 17 17 17 17 17 17 17 17 16 14 11 14 16 14 16 19 18 18 18 17 16 17 17 18 19 18 18 17 17 16 16 16 16 15 14 14 15 16 20 22 20 19 18 17 18 18 18 17 16 18 20 20 19 19 19 19 20 20 19 22 25 23 22 24 26 24 19 19 25 26 21 22 25 26 28 29 28 28 28 31 31
19 19 18 18 18 17 17 18 18 18 18 17 17 16 15 14 12 12 16 15 13 17 19 18 19 18 16 16 16 17 18 19 18 17 17 17 16 16 15 15 15 14 14 14 14 17 19 18 19 19 17 19 20 19 17 17 18 19 18 18 18 19 19 19 18 18 21 22 21 21 24 26 26 20 20 27 27 24 24 25 27 30 30 30 30 30 31 32
20 20 20 20 19 19 19 19 19 19 19 18 17 16 14 14 13 14 15 14 14 16 16 18 19 17 16 16 15 17 17 17 18 17 16 16 16 16 15 15 14 11 12 11 12 15 14 13 16 17 15 16 17 16 16 16 16 17 16 16 18 18 17 17 18 18 18 18 18 18 19 23 22 20 25 29 27 25 25 26 28 29 29 29 29 29 29 30
23 22 22 22 21 21 20 20 19 19 19 18 18 16 15 15 15 15 16 15 15 15 16 18 18 16 16 15 15 17 16 15 16 16 16 14 14 14 14 15 14 11 12 12 11 11 10 9 11 11 11 13 13 12 12 13 14 14 14 16 18 18 17 18 18 16 14 16 19 18 18 20 19 22 28 28 26 27 27 27 27 26 26 27 26 25 25 26
25 24 24 23 23 23 22 20 19 19 19 19 18 17 17 17 17 17 17 17 17 17 18 19 17 17 17 16 17 17 15 15 16 15 16 16 14 15 15 15 14 14 14 13 11 11 10 10 12 11 9 9 9 9 10 11 11 12 13 15 17 17 18 19 18 15 13 16 20 20 19 19 18 22 25 24 25 26 25 26 26 27 26 24 23 23 23 23
26 25 24 24 24 23 22 21 20 19 19 19 19 19 19 18 17 18 18 19 19 18 19 19 18 17 17 18 20 18 15 16 16 15 16 16 14 15 17 16 15 15 14 11 10 13 11 9 14 15 11 9 9 10 11 10 10 11 13 14 15 16 18 20 20 18 18 19 21 21 20 20 21 24 25 24 24 24 25 27 27 28 28 26 25 25 25 23
26 26 25 24 24 23 23 22 21 20 20 20 21 20 19 18 17 18 19 20 20 18 18 18 18 18 18 19 20 21 20 18 17 16 17 16 14 15 16 16 16 15 15 12 12 14 11 10 14 14 11 12 12 11 11 10 10 12 12 13 15 15 17 19 20 20 21 22 23 24 24 24 25 26 27 26 26 26 27 28 28 27 28 28 28 27 25 23
27 27 26 25 24 24 24 23 22 21 20 21 21 21 20 20 21 21 21 21 20 20 19 18 19 19 18 19 18 19 22 22 19 18 18 18 19 19 19 17 17 16 16 16 14 15 14 15 15 12 12 14 12 11 12 11 11 13 13 14 15 16 16 18 19 20 21 22 23 23 24 25 24 24 25 24 23 24 25 25 26 26 26 27 28 26 25 24
28 27 27 26 25 25 25 24 24 23 22 22 22 21 22 22 23 24 23 22 22 22 21 21 22 21 20 21 18 17 20 22 22 21 20 20 21 22 21 20 19 18 17 15 16 17 16 16 15 13 15 16 12 13 14 13 13 14 15 16 15 14 15 17 19 21 21 22 23 22 22 23 20 20 24 22 19 22 23 23 23 24 25 26 27 26 25 24
28 28 28 27 26 26 25 25 25 25 24 24 22 22 22 23 25 25 24 23 24 24 23 23 24 23 23 23 20 19 21 21 23 23 21 22 25 24 22 22 21 20 19 17 18 19 17 16 17 16 18 16 13 15 15 15 16 15 16 16 14 15 17 17 19 22 22 23 23 23 23 21 16 17 23 23 20 22 22 23 24 24 24 25 25 26 25 24
27 28 29 26 26 27 26 26 26 26 26 25 23 23 23 24 26 25 24 25 26 26 26 26 27 27 27 26 25 24 23 23 25 26 23 25 29 27 23 24 23 22 21 20 21 22 20 20 19 18 20 19 16 18 17 15 16 16 16 16 15 18 19 19 21 21 22 22 23 24 24 22 19 22 24 23 24 25 22 23 25 25 24 24 24 26 27 26
25 28 29 26 26 28 27 27 27 27 27 27 25 26 26 26 26 25 25 26 27 28 29 30 30 29 28 29 29 28 27 26 26 28 28 27 29 31 29 26 24 25 23 22 23 24 22 23 21 20 22 21 19 21 20 17 17 18 20 20 19 19 20 21 23 22 22 24 24 24 25 25 26 27 26 24 27 29 25 24 25 24 24 24 25 27 28 28
24 28 28 25 26 29 28 28 28 27 28 28 27 28 28 27 27 26 25 26 27 29 30 31 32 32 32 32 31 31 32 31 28 30 32 28 28 34 33 26 25 27 25 24 27 27 23 24 25 24 24 23 23 25 25 22 22 23 25 25 24 23 22 24 26 25 26 27 26 27 29 30 30 30 27 27 29 30 27 27 28 27 27 26 27 29 29 30
24 27 26 24 26 28 28 29 29 29 28 28 30 31 30 28 28 28 27 26 27 29 30 31 32 34 33 34 33 32 34 33 32 33 34 32 35 37 33 28 28 29 27 27 30 29 25 26 28 28 28 27 26 28 30 29 28 29 30 29 29 28 27 28 29 29 31 30 28 30 31 32 33 33 31 30 30 31 31 32 32 32 32 31 30 30 31 32
22 25 25 24 25 27 28 29 30 30 29 30 32 33 32 32 31 30 29 29 29 30 30 29 31 32 32 33 33 31 33 34 34 35 34 35 39 37 32 31 31 30 31 30 31 30 27 27 30 30 30 30 29 29 30 30 30 31 31 30 31 31 30 30 30 31 32 30 31 34 34 33 35 36 34 32 30 30 32 33 33 34 34 34 32 31 32 34
21 23 24 24 25 26 27 29 30 30 30 31 31 31 32 34 33 32 33 33 32 31 31 30 31 30 29 32 31 29 32 34 33 34 34 35 38 36 33 32 32 33 33 31 31 32 31 30 32 32 32 32 30 28 27 28 30 32 31 29 31 33 31 30 31 34 33 30 31 35 36 36 37 37 37 36 35 34 34 35 36 35 35 35 34 34 34 34
23 23 23 23 24 25 27 28 28 29 31 32 31 31 32 33 34 34 34 36 35 34 34 34 34 32 31 33 32 30 32 33 32 34 35 35 37 38 35 33 34 36 34 32 33 35 34 34 34 35 35 35 33 31 31 33 34 35 36 35 34 35 34 32 34 36 35 34 35 35 35 37 38 38 39 39 37 35 36 36 37 38 39 38 38 38 37 36
26 25 24 23 23 25 27 28 28 29 32 33 32 33 33 33 35 35 34 36 38 36 36 37 37 36 36 36 35 34 34 35 35 35 36 35 37 41 38 35 37 38 36 36 37 36 37 38 37 37 38 38 37 37 37 39 40 40 41 42 40 39 38 37 37 36 35 38 37 35 35 37 36 37 40 40 38 36 35 35 36 38 40 40 40 41 42 42
26 27 26 26 25 24 25 26 27 29 31 31 32 34 34 34 36 36 34 36 38 37 37 39 38 38 39 39 40 39 38 39 40 39 38 37 38 42 41 38 39 41 39 40 41 40 40 41 40 39 39 39 39 39 39 41 43 43 44 45 44 43 43 42 42 39 37 37 37 35 38 40 38 37 38 37 37 36 35 35 36 38 38 38 39 41 42 44
28 27 27 28 28 28 26 25 25 29 30 31 33 34 33 33 35 36 36 36 37 37 38 39 39 39 41 41 42 42 40 40 40 39 38 38 37 40 39 37 39 41 40 40 42 42 42 42 42 42 43 43 42 42 42 44 45 45 45 46 46 45 45 45 44 43 39 37 37 37 38 39 39 40 39 37 37 38 38 38 38 38 37 38 39 39 40 42
29 29 28 28 30 30 30 28 27 28 29 30 32 34 34 35 35 36 36 36 37 38 37 38 39 40 40 40 41 43 42 41 41 40 40 39 38 36 35 35 36 37 38 38 39 41 41 40 41 41 43 45 44 43 44 44 45 46 45 45 46 47 46 45 45 45 43 41 39 38 40 41 40 41 42 41 42 43 42 41 40 39 38 38 38 38 39 40
27 28 28 29 30 30 30 31 30 30 31 30 31 32 33 34 36 37 36 36 37 38 38 37 38 39 38 39 42 43 42 42 43 43 43 42 41 38 36 37 37 37 38 38 38 39 38 38 39 40 42 44 44 43 44 44 46 48 47 47 47 47 47 45 44 44 44 42 41 41 43 43 41 41 42 42 43 44 44 42 41 41 42 41 40 40 41 42
24 25 26 27 29 29 30 30 30 31 35 35 33 33 33 33 35 36 35 35 36 37 37 37 37 37 36 37 39 40 40 41 42 43 43 43 43 43 41 42 42 40 39 39 38 37 37 36 37 39 43 44 43 43 45 47 49 50 47 46 46 45 44 44 44 44 43 42 42 43 44 42 41 42 42 41 42 42 41 41 42 42 43 43 42 42 43 44
Wind_Direction
243 244 244 246 247 249 251 253 256 259 262 265 269 273 276 278 278 277 275 272 270 267 264 261 258 254 252 250 250 249 246 244 243 243 244 245 246 247 249 251 253 254 255 256 256 256 256 255 255 253 252 252 250 250 247 245 244 241 239 238 238 236 240 242 236 236 230 227 244 251 252 247 248 249 243 241 240 241 243 241 242 242 241 242 243 244 243 237
244 244 245 247 249 250 253 256 258 261 265 268 272 276 279 280 280 278 276 274 272 269 266 262 258 254 251 249 248 247 245 243 243 243 244 245 246 247 248 250 252 254 254 254 255 255 256 256 257 256 255 254 252 252 249 246 244 242 241 237 237 235 237 239 233 235 237 234 246 253 252 246 245 248 245 243 242 241 242 243 244 243 242 243 244 244 242 241
244 245 247 249 250 252 255 257 260 263 267 271 275 279 281 281 280 279 278 276 274 271 267 263 259 254 250 248 247 246 245 243 244 245 245 245 247 248 249 250 251 253 253 253 254 254 255 256 257 257 256 256 254 255 253 249 246 244 242 238 238 236 234 240 239 241 244 241 247 251 250 249 246 246 247 244 243 243 242 244 244 244 245 244 245 246 246 242
245 247 248 250 252 254 256 258 260 264 268 273 277 280 281 281 281 280 278 277 275 272 269 264 259 254 250 248 248 247 246 245 245 247 247 247 247 249 249 250 251 251 252 252 253 254 255 256 257 257 257 257 256 256 255 252 248 245 243 238 238 238 238 244 246 243 242 242 245 249 249 250 246 243 246 245 245 244 241 243 244 245 245 243 241 239 234 230
246 248 250 252 253 255 256 258 261 265 270 274 278 280 281 281 280 280 279 278 276 273 269 264 260 255 251 249 249 249 249 248 247 247 248 248 248 249 249 250 249 249 250 251 253 254 255 256 257 257 256 257 257 255 256 254 249 249 247 240 240 243 245 247 247 243 242 244 246 248 247 247 246 244 243 243 246 244 239 240 240 242 245 243 238 233 231 231
248 250 252 253 254 254 255 258 261 265 270 275 277 279 280 280 280 280 279 278 275 272 268 264 260 256 253 251 251 251 251 251 249 248 250 250 250 250 250 249 249 249 249 250 252 254 256 257 257 257 256 256 257 254 254 253 250 251 248 242 243 246 248 247 247 246 244 244 245 245 245 245 246 245 242 240 244 244 244 245 243 243 246 243 242 245 245 242
249 251 252 253 253 253 254 257 261 265 270 273 275 277 278 279 280 280 280 278 274 272 268 264 260 257 255 253 253 252 252 253 251 250 251 251 251 251 251 250 249 248 249 250 252 255 257 258 257 257 256 255 255 252 252 253 250 248 247 245 245 247 247 247 248 248 245 245 245 245 247 246 245 245 242 241 244 246 251 253 250 250 249 247 247 246 242 240
249 251 252 252 251 252 253 257 260 264 268 270 271 273 276 278 279 280 281 279 275 272 268 264 262 259 258 256 255 254 254 254 253 253 252 252 253 252 252 250 249 248 250 252 254 256 257 257 257 255 253 251 251 251 252 252 247 243 244 245 245 246 246 248 248 247 247 247 247 247 248 247 246 248 248 248 247 247 251 254 254 254 253 252 244 232 231 238
250 250 251 250 249 250 252 255 258 262 264 266 267 269 273 276 280 282 284 283 277 272 269 265 263 261 258 256 255 255 255 255 255 255 254 253 252 251 251 250 249 250 251 254 255 256 256 256 255 253 251 250 251 251 250 249 245 240 241 244 245 245 246 247 247 248 249 249 249 249 251 251 249 251 253 252 249 247 249 251 254 254 253 253 241 230 234 241
250 250 249 249 248 249 251 254 256 259 261 263 264 266 270 274 279 283 286 286 280 274 270 266 264 260 258 257 256 256 255 255 254 254 253 252 251 250 250 250 250 251 252 253 254 255 255 254 253 251 250 249 248 247 244 243 244 242 240 245 246 246 247 246 248 250 249 250 250 251 253 253 252 253 253 251 249 247 248 247 248 250 251 249 239 235 240 241
249 249 249 248 248 249 249 252 255 258 259 260 262 264 267 271 275 280 284 286 284 278 271 266 262 260 259 258 257 257 255 254 253 253 253 252 252 250 250 250 250 250 251 251 252 253 253 252 250 247 246 246 245 245 243 241 245 245 242 244 245 245 246 246 248 249 250 251 248 250 254 254 256 257 250 250 252 251 250 249 246 247 248 244 239 239 240 242
248 248 248 247 247 247 248 250 254 257 257 258 260 262 265 268 271 274 278 281 282 280 275 269 263 260 258 257 258 257 256 255 255 254 254 253 253 252 251 250 250 249 250 251 250 251 250 249 248 246 245 246 244 243 243 242 245 245 243 245 246 248 248 247 249 247 248 251 246 245 253 258 258 251 251 254 256 254 253 254 252 250 246 236 232 237 243 246
248 248 247 246 246 245 246 248 252 255 255 256 258 261 263 265 267 269 272 275 276 278 278 275 269 264 260 258 258 257 257 258 258 257 256 256 254 253 252 250 249 249 250 250 250 252 251 250 248 247 247 245 244 244 245 245 245 246 246 247 248 252 254 249 246 246 246 246 246 244 249 264 261 242 251 252 251 254 252 254 255 254 252 243 235 238 244 243
247 247 246 245 245 243 243 245 248 252 253 255 257 260 262 263 265 267 269 271 273 275 276 276 274 271 266 262 261 259 259 258 258 259 257 257 255 253 252 251 251 250 250 250 251 253 253 253 249 247 247 245 246 246 246 246 246 248 247 246 248 254 260 253 244 242 245 245 244 238 229 238 233 237 250 245 241 249 250 252 252 251 255 255 253 253 249 245
246 245 245 245 244 242 241 242 245 249 251 255 257 259 261 263 265 265 267 268 270 272 273 273 273 274 271 268 265 262 260 258 257 257 255 255 255 255 253 251 250 248 249 249 250 252 251 251 247 245 245 244 248 245 247 248 248 249 243 245 244 211 243 257 252 239 240 245 241 229 214 202 228 245 256 247 238 240 243 250 250 251 251 249 253 254 250 248
246 245 244 244 243 242 240 239 242 246 250 254 257 260 261 262 264 264 265 265 266 269 271 272 272 272 271 270 269 266 263 260 258 256 255 254 253 254 254 251 249 247 247 246 249 251 249 249 245 243 240 238 241 239 244 247 248 249 232 234 223 190 238 263 262 241 232 242 241 223 199 186 237 252 260 257 242 234 236 247 248 249 252 248 249 248 246 250
245 245 244 244 243 241 239 238 240 243 248 252 256 260 261 262 264 264 264 264 265 266 268 270 271 271 271 270 268 266 265 264 262 260 258 257 254 254 253 252 251 249 248 245 245 246 245 245 239 238 234 231 234 231 235 233 250 256 226 222 208 184 227 271 276 253 235 239 244 226 201 190 237 258 263 259 238 227 231 241 247 247 250 252 252 252 251 253
245 244 244 243 243 241 239 238 239 242 246 251 255 259 261 263 264 264 264 264 264 265 267 269 270 270 270 269 267 266 266 264 264 262 259 257 255 254 254 255 255 253 251 247 245 244 242 241 237 235 230 228 225 209 203 199 220 258 229 225 212 184 199 243 272 258 240 234 223 220 207 195 222 258 264 253 231 226 233 237 245 247 249 250 252 256 257 254
244 243 243 242 242 241 240 239 240 242 245 249 253 257 260 263 264 264 264 264 265 265 267 268 268 270 270 270 270 268 266 263 262 259 256 255 254 254 254 254 255 253 252 248 245 242 239 238 234 229 224 226 222 203 203 203 203 238 232 222 220 207 206 220 248 250 253 241 218 222 220 202 220 248 254 250 238 236 239 238 242 246 249 250 250 253 257 258
243 242 242 242 241 240 239 239 240 241 244 248 251 255 259 262 264 265 264 264 265 265 266 267 268 270 271 271 270 268 266 264 261 258 255 254 251 249 249 249 251 250 250 248 245 243 241 238 231 227 227 231 229 219 223 227 227 245 243 217 208 218 214 218 248 253 256 250 224 224 234 215 222 239 244 256 255 245 245 244 242 244 248 249 249 249 254 259
245 243 241 242 242 241 240 239 240 241 244 247 250 254 258 261 263 265 266 265 265 265 265 267 269 269 269 269 269 268 266 263 262 260 256 254 251 248 246 245 246 245 247 247 247 246 242 238 236 234 235 233 229 226 226 229 235 242 238 221 213 215 210 219 246 260 258 250 229 227 251 236 228 238 248 260 263 251 249 250 245 244 247 248 249 248 250 256
245 243 241 240 240 241 241 241 241 243 245 248 251 256 259 261 264 264 266 266 266 266 266 267 267 267 267 267 267 267 266 264 263 262 259 257 253 249 247 245 245 244 246 247 248 249 249 252 251 245 238 235 231 230 230 226 229 232 229 223 218 214 219 233 244 256 261 251 230 232 259 252 236 242 255 259 258 252 251 252 248 245 246 248 250 249 249 254
244 242 240 240 240 241 242 243 244 246 248 251 254 257 260 262 263 265 266 267 267 266 266 266 265 265 264 263 264 263 263 262 261 260 259 257 254 253 250 245 243 244 245 245 245 246 249 257 260 250 237 239 237 235 236 233 231 227 225 226 218 212 226 244 249 251 253 246 235 240 253 256 249 252 261 260 254 253 252 252 251 247 246 249 249 249 250 254
243 241 240 240 240 242 244 245 247 249 251 254 256 259 261 263 264 265 267 268 268 267 266 265 263 262 263 261 261 258 258 261 261 260 258 256 254 252 250 246 245 247 245 243 243 242 243 248 257 258 243 242 242 239 238 235 236 233 228 227 222 222 230 233 242 248 249 245 241 247 255 260 265 266 266 264 255 251 250 252 253 251 249 250 250 251 252 254
243 242 241 240 241 242 245 247 250 252 254 257 259 261 263 265 266 267 268 267 267 267 264 262 260 260 261 260 258 256 256 259 260 260 258 254 251 249 250 249 246 245 244 242 238 237 251 254 257 258 250 247 245 243 241 237 240 242 239 234 229 235 241 234 242 251 253 257 252 249 255 260 265 262 257 258 258 253 248 250 253 255 254 254 255 256 255 255
242 242 242 243 244 246 248 250 253 256 258 259 261 263 264 265 267 267 267 266 265 264 260 258 258 259 260 258 257 256 256 258 258 258 255 252 250 249 250 246 239 242 245 244 236 237 254 260 258 254 250 247 247 246 246 241 241 246 245 240 234 238 247 247 250 254 254 259 259 254 254 254 250 252 252 254 259 260 256 253 252 254 256 256 257 256 256 257
244 244 245 247 249 250 252 254 256 258 260 262 263 265 266 266 266 265 264 259 255 257 258 258 258 259 258 258 257 252 251 257 260 257 252 251 250 247 247 243 239 245 246 244 242 245 254 260 258 256 249 244 245 245 247 241 237 243 244 242 240 240 248 253 253 256 256 254 257 258 258 255 247 251 260 258 258 262 263 261 257 254 253 253 253 254 255 257
246 246 247 250 252 253 255 257 259 260 262 262 263 264 265 265 264 262 260 254 251 254 258 260 260 258 257 255 253 250 247 252 256 255 252 251 248 244 244 243 241 250 247 239 244 250 255 259 257 255 250 245 242 240 245 241 233 241 245 246 247 246 250 257 255 255 257 255 258 261 259 256 253 252 259 262 261 260 261 264 262 257 254 253 252 253 255 255
246 246 248 252 255 256 258 260 261 262 263 263 262 261 262 262 260 258 253 250 254 258 258 259 258 256 256 254 252 251 249 246 248 252 252 249 248 244 243 245 248 256 253 242 246 255 258 261 258 253 247 240 234 239 246 242 235 242 250 249 250 252 254 259 258 257 257 255 258 262 260 258 256 252 255 262 262 255 252 255 257 257 257 257 256 255 254 253
247 248 249 252 256 258 260 262 263 264 264 263 262 260 258 257 254 249 244 246 253 258 258 260 259 256 256 254 252 250 249 248 246 248 249 247 246 246 244 247 249 250 252 246 248 257 259 260 258 252 245 239 239 247 250 243 239 244 250 250 252 256 256 256 258 257 256 258 261 262 259 259 261 258 257 260 259 251 248 249 253 259 259 258 259 258 256 254
247 248 251 253 257 260 262 264 265 266 265 263 261 257 254 252 245 238 242 246 250 253 256 258 258 256 253 251 252 249 248 250 248 244 246 246 244 245 246 247 247 245 249 250 250 258 260 261 260 255 249 246 247 250 249 243 240 242 246 250 253 254 255 258 259 254 255 261 263 261 259 259 260 257 248 251 255 255 255 255 256 261 262 260 259 258 256 256
249 250 253 256 259 262 263 265 265 264 263 261 258 253 247 244 237 235 240 242 245 250 252 254 256 256 250 246 248 248 244 246 247 243 244 248 244 243 243 243 243 241 244 245 245 254 264 266 262 257 252 251 252 252 249 244 241 241 243 245 249 250 253 256 254 252 258 263 258 254 258 260 259 253 249 252 257 259 259 259 259 260 260 260 258 256 256 255
255 256 258 260 261 263 264 264 263 261 260 257 254 249 243 238 232 232 236 237 240 245 246 250 255 253 248 240 234 237 240 241 243 237 234 240 239 236 236 234 231 228 230 230 231 244 262 262 251 250 252 251 250 246 243 242 237 236 238 238 241 244 246 249 251 254 261 264 258 250 252 260 260 256 257 259 259 259 260 261 262 263 262 260 258 256 255 252
259 259 260 262 262 262 262 261 260 258 256 253 251 247 241 237 233 232 234 236 239 239 241 247 250 248 245 236 228 231 234 237 237 231 227 230 232 233 234 230 222 219 223 225 227 235 243 244 241 244 251 249 241 236 239 246 240 230 231 236 238 240 242 246 250 248 241 247 256 257 258 263 261 258 261 262 258 258 260 262 264 266 266 264 260 256 253 251
260 259 259 260 260 260 260 259 257 254 252 250 248 245 243 240 238 237 236 238 241 242 243 245 245 244 238 233 234 234 229 233 236 229 223 223 225 228 230 226 219 217 220 222 231 235 230 233 243 244 248 250 246 243 244 251 254 243 235 240 244 244 245 248 250 250 246 246 254 263 269 271 267 267 270 270 268 267 266 265 265 264 264 262 260 259 256 252
259 259 258 257 258 258 258 257 255 251 248 247 245 244 244 240 236 237 236 235 238 241 242 242 241 239 234 233 237 236 231 232 233 227 222 223 224 228 229 225 221 220 220 217 227 234 219 217 238 246 252 253 249 251 250 244 249 253 245 242 243 244 249 253 256 258 259 259 261 267 273 275 274 275 274 270 271 272 268 266 263 260 260 259 260 259 257 253
258 258 257 256 255 255 255 255 254 251 247 245 244 243 242 240 236 237 238 234 233 237 239 239 238 235 233 235 236 235 233 232 229 226 226 229 231 235 238 232 225 226 226 225 236 241 226 226 243 257 259 253 248 255 260 249 243 251 254 249 247 249 252 256 258 259 261 264 266 268 271 272 272 273 273 270 269 268 267 264 260 257 256 256 256 257 256 254
258 256 256 255 253 252 252 252 251 250 248 246 245 243 242 242 239 237 237 234 233 234 234 234 236 233 232 236 235 235 235 230 229 229 228 236 239 237 239 237 230 232 233 235 244 246 238 240 250 258 259 257 258 261 266 266 257 251 254 254 255 257 258 260 263 264 265 267 268 268 269 271 270 267 269 271 265 262 263 261 258 257 256 254 253 254 255 255
258 256 255 254 252 251 250 250 250 249 248 247 247 246 244 243 242 239 237 235 233 232 232 234 237 233 231 235 234 235 234 227 230 234 230 236 243 238 237 239 237 237 238 241 248 249 247 249 252 255 257 258 264 267 271 274 266 255 253 255 257 260 261 265 266 266 267 268 269 269 267 267 263 254 263 272 267 259 260 262 261 259 257 255 252 252 252 252
258 256 255 252 251 251 248 247 247 248 249 248 247 246 246 246 246 243 237 235 234 232 231 232 235 234 232 235 236 237 237 230 231 237 234 236 243 242 239 240 241 241 241 244 250 253 253 254 254 258 262 264 267 265 263 263 262 261 263 264 264 263 261 260 259 261 265 267 270 272 271 267 258 252 262 272 269 265 264 265 264 261 257 254 251 251 250 249
258 256 255 250 248 250 248 246 246 246 248 248 246 246 247 248 248 245 239 237 236 235 233 232 235 237 234 234 237 239 242 238 234 238 241 243 248 248 242 241 245 246 246 248 251 253 254 255 255 257 263 268 266 260 258 262 267 268 267 268 268 266 263 262 262 263 263 264 266 268 269 268 262 259 262 263 264 269 270 265 262 261 257 252 250 251 251 249
258 257 256 252 248 248 248 247 246 245 245 246 245 245 247 247 246 245 241 238 238 237 237 236 236 238 238 237 238 240 242 242 239 241 243 244 248 249 246 244 247 249 250 252 254 255 257 260 261 260 261 263 262 263 265 268 269 267 265 266 267 265 264 266 266 265 263 262 263 264 265 267 266 264 263 260 262 267 267 263 262 263 262 257 253 252 251 251
259 259 258 253 248 247 247 246 246 245 245 246 245 244 245 246 244 244 242 239 238 238 238 238 238 239 240 240 240 241 243 243 242 244 246 246 247 250 251 250 249 251 252 253 256 258 260 264 265 264 264 264 264 268 270 270 269 267 266 266 266 263 262 261 262 263 263 262 264 266 266 267 268 268 266 263 260 261 262 264 264 265 266 264 260 256 253 252
262 261 260 254 250 248 245 244 245 245 243 244 247 247 246 245 243 243 243 240 238 238 238 239 239 239 240 241 240 241 244 244 243 243 245 248 250 250 252 252 252 253 252 254 259 261 262 265 265 266 269 270 271 272 273 273 271 268 266 266 265 262 261 261 261 262 262 262 262 262 263 265 268 269 268 264 259 259 263 265 265 264 265 264 262 262 260 256
264 263 261 257 253 250 247 244 244 245 244 245 247 249 249 248 245 243 244 243 241 240 239 239 240 239 240 242 241 239 242 244 245 246 245 248 252 251 251 254 255 255 256 257 261 262 262 264 267 269 270 271 273 271 267 267 267 268 268 268 268 267 267 266 262 260 260 260 258 257 257 259 262 265 267 266 264 263 263 264 265 265 264 264 265 267 266 262
263 262 262 259 255 252 250 246 243 242 243 243 244 245 247 250 248 244 243 245 244 242 242 242 241 241 242 244 243 241 244 247 247 249 249 251 256 254 251 254 258 258 260 261 262 263 264 264 265 268 269 270 269 265 262 263 264 266 267 267 267 269 269 267 262 260 260 259 257 256 256 257 259 262 265 264 263 264 264 263 264 264 264 265 266 266 265 263
262 261 260 259 256 253 251 249 245 243 243 243 244 245 245 248 250 248 245 247 247 245 245 246 245 245 245 247 247 246 248 250 250 251 253 255 259 257 254 256 260 261 262 263 263 264 266 266 266 267 268 268 267 264 264 265 265 265 266 265 263 264 264 262 261 261 261 259 258 257 256 257 258 260 262 262 262 263 265 266 266 265 265 266 266 265 264 263
262 260 259 257 255 253 252 250 248 247 246 246 245 246 246 246 249 251 249 248 249 247 247 248 248 249 249 249 250 250 251 254 254 254 255 256 259 262 260 259 261 262 263 263 264 264 265 266 267 267 266 266 265 265 264 264 264 264 265 265 264 263 263 263 263 263 261 259 260 257 253 254 255 256 259 263 262 261 261 264 267 267 266 267 267 266 264 263
261 260 259 257 254 253 253 252 249 249 249 247 247 247 247 246 247 249 248 248 250 249 249 250 251 251 252 252 253 254 253 255 256 256 256 256 257 261 263 261 261 262 262 262 265 265 264 264 264 264 264 264 264 264 264 265 266 266 266 267 267 266 265 265 266 266 262 260 260 258 255 252 251 252 255 258 261 261 261 263 265 264 265 265 265 265 264 263
259 259 258 257 255 254 253 251 249 249 250 249 248 248 247 247 248 249 248 249 251 252 251 252 253 252 253 254 255 254 254 254 255 255 255 256 256 257 258 259 260 262 263 262 263 263 262 262 263 264 264 264 264 264 265 266 267 266 265 266 267 268 267 266 267 267 266 264 261 259 257 254 251 252 253 254 256 259 260 261 262 262 263 263 261 261 262 262
258 258 256 255 255 254 253 251 249 248 248 247 248 249 249 248 248 250 251 251 252 253 252 253 254 255 255 256 256 255 255 255 255 256 256 257 257 257 257 258 258 260 263 264 263 262 262 262 264 265 265 265 267 268 269 268 266 265 265 265 267 269 269 269 267 266 266 265 262 259 258 257 256 255 254 254 255 257 258 260 260 262 262 261 260 260 260 261
258 257 256 255 254 253 252 252 249 248 247 247 248 250 250 249 249 250 252 253 252 252 253 252 253 255 255 255 254 255 255 255 256 257 258 258 258 258 258 259 259 259 260 262 263 263 264 265 267 268 268 268 270 271 271 270 269 268 270 271 270 269 268 267 266 264 263 263 262 260 259 258 258 257 256 255 257 258 258 257 256 257 257 257 258 259 259 259
Height
5766 5767 5767 5767 5768 5768 5768 5768 5768 5768 5768 5768 5768 5768 5767 5767 5767 5767 5766 5766 5766 5766 5766 5766 5766 5766 5766 5766 5767 5767 5768 5768 5769 5770 5770 5771 5772 5772 5773 5774 5775 5775 5776 5776 5776 5777 5777 5778 5778 5779 5779 5780 5781 5781 5782 5783 5783 5784 5785 5786 5787 5789 5792 5792 5791 5788 5789 5790 5783 5782 5790 5793 5791 5791 5793 5795 5795 5795 5795 5797 5795 5796 5796 5794 5797 5799 5796 5796
5764 5765 5765 5765 5765 5766 5766 5766 5766 5766 5766 5766 5766 5765 5765 5765 5764 5764 5764 5763 5763 5763 5763 5763 5763 5763 5763 5764 5764 5765 5765 5766 5767 5767 5768 5769 5769 5770 5771 5771 5772 5773 5773 5773 5774 5774 5775 5776 5776 5777 5778 5778 5779 5779 5780 5781 5781 5782 5783 5784 5785 5788 5789 5784 5782 5783 5785 5786 5782 5784 5789 5789 5790 5789 5791 5792 5792 5793 5793 5793 5793 5793 5793 5792 5795 5796 5794 5793
5762 5762 5763 5763 5763 5763 5764 5764 5764 5764 5764 5764 5763 5763 5762 5762 5762 5761 5761 5760 5760 5760 5760 5760 5760 5760 5761 5761 5761 5762 5763 5763 5764 5765 5765 5766 5767 5768 5768 5769 5769 5770 5771 5771 5772 5772 5773 5774 5775 5775 5776 5776 5777 5778 5778 5779 5780 5780 5781 5782 5784 5785 5782 5778 5779 5783 5783 5783 5782 5784 5786 5787 5787 5787 5789 5789 5790 5791 5791 5790 5790 5790 5790 5791 5792 5792 5792 5791
5759 5760 5760 5761 5761 5761 5761 5762 5762 5762 5762 5761 5761 5761 5760 5760 5759 5759 5758 5758 5758 5757 5757 5757 5758 5758 5758 5758 5759 5760 5760 5761 5762 5762 5763 5764 5764 5765 5766 5766 5767 5768 5768 5769 5770 5770 5771 5772 5773 5773 5774 5775 5775 5776 5776 5777 5778 5778 5778 5780 5781 5779 5777 5777 5779 5781 5780 5781 5782 5783 5785 5785 5785 5786 5787 5787 5787 5788 5788 5787 5787 5788 5787 5788 5789 5790 5790 5788
5757 5758 5758 5758 5759 5759 5759 5759 5760 5760 5759 5759 5759 5758 5758 5757 5757 5756 5756 5756 5755 5755 5755 5755 5755 5756 5756 5756 5757 5758 5758 5758 5759 5760 5761 5761 5762 5763 5763 5764 5764 5765 5766 5767 5768 5768 5769 5770 5771 5771 5772 5772 5773 5774 5774 5775 5776 5776 5777 5778 5777 5775 5776 5777 5777 5777 5778 5780 5781 5782 5783 5782 5783 5785 5784 5785 5785 5784 5784 5784 5785 5785 5783 5784 5786 5787 5787 5784
5755 5755 5756 5756 5757 5757 5757 5757 5757 5757 5757 5757 5757 5756 5756 5755 5755 5754 5754 5754 5753 5753 5753 5753 5753 5753 5754 5754 5755 5755 5756 5756 5757 5758 5758 5759 5760 5760 5761 5761 5762 5763 5764 5765 5765 5766 5767 5768 5769 5769 5770 5770 5771 5772 5772 5772 5774 5774 5775 5775 5774 5774 5775 5775 5775 5776 5777 5779 5779 5779 5780 5781 5782 5782 5782 5784 5782 5781 5781 5782 5783 5782 5781 5782 5783 5782 5782 5780
5753 5753 5754 5754 5754 5755 5755 5755 5755 5755 5755 5755 5755 5754 5754 5754 5753 5753 5752 5752 5751 5751 5751 5751 5751 5752 5752 5752 5753 5753 5753 5754 5755 5756 5756 5757 5757 5758 5758 5759 5760 5761 5762 5762 5763 5764 5765 5766 5766 5767 5768 5768 5768 5769 5769 5770 5772 5772 5772 5772 5772 5773 5773 5773 5774 5774 5776 5777 5777 5778 5779 5780 5780 5779 5780 5781 5779 5780 5780 5781 5781 5780 5780 5780 5780 5780 5780 5780
5751 5751 5752 5752 5752 5753 5753 5753 5753 5753 5753 5753 5753 5753 5752 5752 5752 5751 5750 5750 5750 5750 5750 5750 5750 5750 5750 5750 5751 5751 5751 5752 5753 5753 5754 5755 5755 5756 5756 5757 5758 5758 5759 5760 5761 5762 5762 5763 5764 5764 5765 5765 5766 5767 5767 5769 5769 5769 5769 5769 5770 5771 5771 5772 5772 5772 5774 5775 5775 5776 5777 5777 5778 5778 5779 5778 5777 5779 5779 5778 5779 5779 5779 5778 5779 5780 5780 5780
5749 5749 5749 5750 5750 5751 5751 5751 5751 5751 5751 5751 5751 5751 5751 5750 5750 5750 5749 5749 5748 5748 5748 5748 5748 5748 5748 5748 5749 5749 5750 5750 5751 5751 5752 5753 5753 5754 5754 5755 5756 5756 5757 5758 5759 5759 5759 5760 5761 5761 5762 5762 5763 5764 5765 5766 5765 5765 5767 5767 5768 5769 5769 5770 5770 5771 5773 5773 5773 5775 5775 5775 5776 5777 5777 5775 5775 5777 5777 5777 5777 5776 5777 5777 5778 5779 5779 5779
5746 5747 5747 5748 5748 5749 5749 5749 5749 5749 5750 5750 5750 5750 5749 5749 5749 5748 5748 5747 5747 5747 5747 5747 5747 5747 5747 5747 5747 5747 5748 5749 5749 5750 5750 5751 5751 5752 5752 5753 5754 5754 5755 5755 5756 5756 5757 5757 5758 5759 5759 5760 5761 5762 5763 5763 5762 5763 5765 5765 5766 5767 5767 5768 5768 5770 5771 5771 5772 5773 5773 5773 5774 5776 5774 5771 5773 5775 5775 5774 5775 5774 5774 5775 5775 5775 5776 5777
5744 5745 5745 5746 5746 5746 5747 5747 5747 5748 5748 5748 5748 5748 5748 5748 5747 5747 5747 5746 5746 5746 5746 5745 5745 5745 5745 5745 5746 5746 5746 5747 5748 5748 5749 5749 5749 5750 5750 5751 5751 5752 5752 5753 5753 5754 5754 5755 5756 5757 5756 5757 5759 5759 5760 5760 5760 5762 5763 5763 5764 5765 5765 5766 5767 5768 5769 5769 5770 5771 5771 5771 5773 5774 5770 5769 5771 5772 5772 5771 5771 5772 5772 5773 5773 5774 5774 5775
5742 5742 5743 5743 5744 5744 5745 5745 5746 5746 5746 5746 5746 5746 5746 5746 5746 5746 5746 5745 5745 5745 5745 5744 5744 5744 5744 5744 5744 5745 5745 5745 5746 5747 5747 5747 5748 5748 5749 5749 5750 5750 5750 5751 5751 5752 5752 5753 5754 5754 5754 5756 5756 5757 5758 5758 5759 5760 5761 5762 5762 5763 5763 5764 5765 5766 5767 5766 5767 5770 5770 5770 5773 5770 5766 5768 5770 5770 5771 5770 5769 5769 5771 5773 5773 5772 5772 5773
5740 5740 5741 5741 5742 5742 5743 5743 5744 5744 5745 5745 5745 5745 5744 5744 5744 5744 5744 5744 5744 5744 5744 5743 5743 5743 5743 5743 5743 5744 5744 5744 5745 5745 5746 5746 5746 5747 5747 5747 5748 5748 5749 5749 5750 5750 5751 5751 5752 5752 5753 5754 5754 5755 5756 5756 5758 5758 5759 5761 5760 5762 5761 5761 5763 5764 5765 5763 5764 5769 5769 5770 5771 5766 5763 5767 5768 5768 5769 5769 5769 5768 5768 5770 5771 5770 5770 5771
5737 5738 5739 5739 5740 5740 5741 5742 5742 5743 5743 5743 5743 5743 5743 5743 5743 5743 5743 5743 5743 5743 5743 5742 5742 5742 5742 5742 5742 5742 5743 5743 5744 5744 5744 5745 5745 5745 5746 5746 5746 5746 5747 5747 5748 5749 5749 5750 5750 5750 5751 5752 5752 5753 5754 5755 5756 5756 5758 5759 5759 5763 5760 5757 5760 5762 5762 5760 5762 5768 5768 5771 5770 5762 5761 5765 5766 5767 5768 5767 5768 5767 5766 5767 5767 5767 5768 5769
5735 5736 5737 5737 5738 5738 5739 5740 5740 5741 5741 5741 5741 5741 5741 5741 5741 5741 5742 5742 5742 5741 5741 5741 5741 5741 5741 5741 5741 5741 5741 5741 5742 5742 5743 5743 5743 5744 5744 5744 5745 5745 5745 5746 5746 5747 5747 5748 5748 5749 5749 5750 5751 5752 5753 5754 5755 5755 5758 5758 5759 5763 5759 5754 5757 5760 5759 5757 5761 5765 5767 5772 5770 5760 5760 5763 5764 5765 5767 5766 5766 5766 5766 5766 5765 5765 5766 5766
5733 5734 5735 5735 5736 5736 5737 5738 5738 5739 5739 5739 5739 5739 5740 5740 5740 5740 5740 5740 5740 5740 5740 5740 5740 5740 5739 5740 5740 5740 5740 5740 5740 5741 5741 5742 5742 5742 5743 5743 5743 5744 5744 5744 5745 5745 5746 5746 5746 5747 5748 5749 5749 5751 5752 5753 5754 5754 5756 5757 5759 5762 5759 5755 5755 5757 5757 5755 5759 5763 5766 5770 5766 5757 5757 5761 5762 5763 5765 5765 5764 5764 5764 5764 5763 5763 5764 5764
5731 5732 5733 5733 5734 5734 5735 5736 5736 5737 5737 5737 5737 5738 5738 5738 5738 5738 5738 5738 5739 5739 5739 5738 5738 5738 5738 5738 5738 5738 5739 5739 5739 5739 5739 5740 5740 5741 5741 5741 5742 5742 5743 5743 5744 5744 5744 5745 5745 5745 5746 5747 5748 5749 5751 5753 5754 5754 5755 5756 5757 5759 5760 5757 5753 5753 5754 5754 5758 5761 5762 5765 5763 5757 5754 5758 5761 5761 5763 5763 5762 5763 5763 5763 5762 5761 5762 5763
5729 5730 5730 5731 5732 5732 5733 5734 5734 5735 5735 5735 5736 5736 5736 5736 5736 5736 5736 5737 5737 5737 5737 5737 5737 5736 5736 5737 5737 5737 5737 5737 5737 5737 5738 5738 5738 5739 5739 5740 5740 5741 5741 5742 5742 5742 5743 5743 5744 5744 5745 5746 5747 5749 5751 5752 5754 5754 5754 5754 5754 5755 5758 5758 5753 5751 5751 5753 5757 5759 5759 5761 5762 5759 5754 5754 5758 5759 5760 5761 5760 5761 5762 5762 5762 5760 5760 5761
5727 5728 5728 5729 5729 5730 5731 5731 5732 5732 5733 5733 5734 5734 5734 5734 5734 5734 5734 5735 5735 5735 5735 5735 5735 5735 5735 5735 5735 5735 5735 5735 5736 5736 5736 5737 5737 5737 5738 5738 5739 5739 5740 5740 5741 5741 5741 5742 5742 5743 5744 5744 5745 5746 5747 5748 5750 5752 5752 5752 5754 5755 5755 5756 5752 5748 5749 5752 5754 5756 5757 5759 5760 5759 5754 5752 5755 5756 5757 5758 5759 5759 5760 5760 5761 5761 5758 5757
5725 5726 5726 5727 5727 5728 5728 5729 5730 5730 5731 5731 5732 5732 5732 5732 5732 5732 5732 5732 5733 5733 5733 5733 5733 5733 5733 5733 5733 5734 5734 5734 5734 5734 5735 5735 5736 5736 5737 5737 5737 5738 5738 5739 5739 5740 5740 5741 5741 5741 5742 5743 5743 5744 5745 5746 5746 5748 5748 5749 5753 5754 5755 5756 5750 5746 5748 5750 5752 5754 5755 5756 5756 5756 5753 5751 5752 5753 5754 5755 5756 5757 5758 5758 5759 5760 5757 5754
5723 5724 5724 5725 5725 5726 5726 5727 5727 5728 5728 5729 5729 5730 5730 5730 5730 5730 5730 5730 5730 5731 5731 5731 5731 5731 5731 5731 5731 5732 5732 5732 5732 5733 5733 5734 5734 5735 5735 5736 5736 5736 5737 5737 5738 5738 5739 5739 5739 5739 5741 5742 5742 5742 5744 5745 5745 5745 5746 5747 5750 5752 5754 5754 5749 5745 5747 5748 5750 5752 5752 5751 5752 5752 5750 5750 5751 5751 5751 5752 5754 5755 5755 5756 5756 5757 5756 5753
5721 5722 5722 5722 5723 5723 5724 5724 5725 5726 5726 5726 5727 5727 5728 5728 5728 5728 5728 5728 5728 5728 5728 5729 5729 5728 5729 5729 5729 5730 5730 5730 5730 5731 5731 5732 5732 5733 5734 5734 5734 5735 5735 5736 5736 5736 5738 5738 5737 5738 5740 5740 5740 5741 5742 5743 5743 5744 5744 5745 5747 5750 5751 5749 5746 5745 5746 5746 5748 5749 5749 5748 5749 5749 5747 5748 5750 5749 5749 5750 5751 5752 5752 5753 5753 5754 5754 5752
5719 5719 5720 5720 5721 5721 5722 5722 5723 5723 5724 5724 5725 5725 5725 5726 5726 5726 5726 5725 5725 5726 5726 5726 5726 5726 5726 5727 5728 5728 5728 5728 5728 5728 5729 5730 5730 5731 5732 5732 5733 5733 5734 5734 5734 5735 5737 5735 5734 5736 5738 5738 5739 5740 5740 5741 5742 5742 5743 5744 5745 5747 5749 5747 5744 5743 5744 5745 5746 5746 5747 5746 5747 5747 5746 5746 5747 5747 5747 5748 5748 5749 5750 5750 5751 5751 5752 5751
5717 5717 5718 5718 5719 5719 5720 5720 5721 5721 5721 5722 5722 5722 5723 5723 5723 5723 5723 5723 5723 5723 5723 5723 5723 5723 5723 5725 5726 5726 5726 5726 5726 5726 5727 5728 5728 5729 5729 5730 5731 5732 5732 5732 5733 5735 5734 5731 5732 5735 5736 5736 5737 5738 5738 5739 5740 5740 5741 5742 5743 5744 5745 5744 5741 5740 5742 5743 5743 5744 5744 5745 5745 5745 5744 5743 5743 5744 5745 5745 5746 5746 5747 5748 5748 5749 5749 5749
5715 5715 5716 5716 5717 5717 5718 5718 5718 5719 5719 5719 5719 5720 5720 5720 5720 5721 5721 5721 5720 5720 5720 5720 5720 5720 5721 5722 5723 5723 5724 5724 5723 5724 5726 5726 5726 5727 5727 5728 5729 5730 5730 5730 5732 5733 5730 5729 5731 5733 5734 5735 5735 5736 5736 5737 5738 5738 5739 5739 5740 5740 5740 5740 5739 5739 5741 5742 5741 5742 5742 5743 5744 5743 5742 5741 5740 5741 5743 5744 5744 5744 5745 5745 5746 5747 5747 5747
5712 5713 5713 5714 5714 5715 5716 5716 5716 5716 5716 5717 5717 5717 5717 5717 5718 5718 5718 5718 5718 5717 5717 5717 5717 5718 5718 5719 5720 5721 5722 5721 5721 5722 5723 5723 5724 5725 5725 5726 5727 5727 5728 5728 5730 5729 5727 5728 5730 5731 5732 5733 5733 5733 5734 5735 5736 5736 5736 5737 5737 5737 5736 5737 5738 5738 5740 5741 5739 5739 5740 5741 5741 5740 5739 5738 5737 5739 5740 5741 5742 5741 5742 5743 5743 5744 5744 5744
5710 5710 5711 5711 5712 5713 5713 5713 5714 5714 5714 5714 5714 5714 5714 5715 5715 5715 5716 5716 5716 5715 5714 5715 5715 5716 5716 5717 5718 5719 5719 5719 5719 5719 5720 5721 5722 5723 5723 5724 5725 5725 5725 5727 5727 5726 5724 5726 5728 5728 5730 5730 5730 5731 5731 5732 5733 5733 5733 5733 5734 5735 5734 5735 5737 5736 5738 5738 5736 5737 5738 5738 5739 5738 5736 5735 5736 5737 5737 5737 5738 5739 5739 5740 5740 5741 5741 5742
5707 5708 5708 5709 5709 5710 5710 5711 5711 5711 5711 5711 5712 5712 5712 5712 5713 5713 5713 5713 5713 5713 5712 5713 5713 5713 5714 5715 5716 5716 5717 5717 5717 5717 5718 5719 5720 5721 5721 5721 5723 5722 5723 5725 5724 5722 5722 5724 5725 5726 5727 5728 5729 5728 5728 5729 5730 5729 5729 5731 5732 5732 5732 5733 5734 5734 5735 5734 5733 5735 5736 5735 5736 5737 5734 5732 5734 5736 5735 5734 5734 5735 5736 5736 5737 5738 5739 5740
5705 5705 5706 5706 5707 5707 5708 5708 5708 5709 5709 5709 5709 5709 5709 5710 5710 5711 5711 5710 5710 5711 5710 5710 5711 5711 5712 5712 5713 5713 5714 5715 5715 5715 5716 5717 5717 5718 5719 5719 5720 5720 5721 5722 5722 5720 5720 5722 5723 5724 5725 5725 5726 5725 5725 5727 5727 5727 5727 5729 5729 5730 5730 5731 5731 5732 5731 5730 5731 5732 5732 5731 5732 5734 5733 5730 5731 5733 5732 5731 5730 5730 5732 5733 5734 5735 5736 5737
5702 5703 5703 5704 5704 5705 5705 5706 5706 5706 5706 5706 5706 5707 5707 5707 5708 5709 5709 5708 5709 5709 5708 5708 5708 5709 5710 5710 5711 5711 5712 5712 5712 5713 5713 5714 5715 5716 5716 5717 5718 5718 5719 5720 5720 5719 5718 5719 5720 5721 5722 5722 5722 5722 5723 5725 5725 5725 5726 5726 5727 5727 5728 5728 5728 5729 5728 5727 5729 5730 5729 5729 5730 5732 5732 5728 5727 5729 5728 5728 5727 5727 5728 5730 5731 5732 5732 5733
5700 5700 5701 5701 5702 5702 5703 5703 5703 5703 5703 5704 5704 5704 5705 5705 5706 5707 5706 5707 5708 5707 5706 5706 5706 5707 5708 5709 5709 5709 5710 5709 5710 5711 5712 5712 5713 5713 5714 5715 5715 5716 5717 5717 5718 5717 5716 5716 5717 5718 5719 5719 5719 5720 5721 5722 5723 5723 5724 5725 5725 5725 5724 5725 5725 5725 5725 5725 5727 5727 5726 5726 5727 5729 5728 5724 5723 5725 5725 5725 5725 5725 5725 5726 5727 5728 5728 5730
5697 5697 5698 5698 5699 5699 5700 5700 5700 5700 5700 5701 5701 5702 5702 5703 5704 5704 5704 5705 5705 5704 5704 5704 5704 5705 5706 5707 5708 5707 5707 5708 5708 5709 5710 5710 5711 5711 5712 5713 5713 5714 5715 5715 5715 5714 5714 5714 5714 5715 5716 5717 5717 5718 5718 5719 5720 5721 5722 5722 5722 5722 5722 5722 5723 5722 5723 5723 5723 5723 5723 5723 5724 5725 5722 5721 5722 5722 5722 5722 5722 5722 5722 5723 5724 5724 5725 5726
5694 5694 5695 5695 5696 5696 5696 5697 5697 5697 5698 5698 5698 5699 5700 5700 5701 5702 5702 5703 5703 5703 5703 5702 5702 5704 5705 5706 5707 5705 5705 5706 5706 5707 5708 5709 5709 5709 5710 5711 5711 5712 5713 5713 5713 5713 5714 5714 5713 5713 5713 5714 5715 5716 5716 5716 5717 5718 5719 5719 5719 5719 5719 5720 5720 5720 5722 5721 5720 5720 5720 5720 5722 5721 5718 5719 5720 5719 5719 5719 5718 5719 5719 5719 5720 5721 5721 5721
5690 5691 5691 5692 5692 5693 5693 5694 5694 5694 5695 5695 5696 5696 5697 5697 5698 5699 5699 5700 5700 5700 5701 5700 5701 5702 5703 5704 5704 5704 5704 5704 5704 5705 5706 5707 5707 5707 5708 5709 5710 5710 5710 5711 5711 5712 5713 5714 5713 5711 5712 5712 5713 5714 5714 5714 5714 5715 5716 5716 5716 5717 5717 5718 5718 5718 5719 5719 5717 5717 5717 5718 5719 5717 5716 5717 5717 5717 5717 5717 5716 5716 5716 5716 5717 5717 5718 5718
5687 5687 5688 5689 5689 5689 5690 5690 5691 5691 5692 5692 5693 5693 5694 5695 5696 5697 5697 5697 5698 5698 5699 5699 5700 5701 5701 5702 5701 5702 5703 5703 5703 5703 5704 5705 5706 5706 5706 5707 5708 5708 5708 5710 5710 5710 5712 5713 5711 5709 5710 5711 5711 5712 5712 5712 5712 5713 5714 5714 5714 5715 5715 5715 5715 5715 5716 5716 5715 5714 5715 5716 5715 5714 5714 5714 5714 5715 5715 5714 5714 5714 5713 5714 5713 5713 5714 5714
5683 5683 5684 5685 5685 5686 5686 5687 5688 5688 5689 5689 5689 5690 5692 5693 5694 5694 5694 5695 5695 5696 5697 5697 5698 5699 5699 5698 5698 5699 5700 5701 5701 5702 5702 5703 5703 5703 5703 5704 5705 5706 5706 5708 5708 5707 5709 5710 5708 5707 5709 5709 5710 5711 5711 5711 5712 5711 5712 5712 5712 5712 5712 5712 5712 5713 5713 5713 5713 5713 5713 5713 5711 5710 5710 5710 5711 5711 5711 5711 5711 5711 5711 5711 5710 5711 5711 5711
5679 5680 5680 5681 5682 5682 5683 5684 5684 5685 5686 5686 5686 5688 5689 5690 5690 5691 5691 5692 5693 5694 5694 5695 5695 5696 5696 5696 5696 5697 5698 5699 5699 5700 5701 5701 5700 5701 5701 5702 5703 5703 5704 5705 5705 5705 5706 5707 5706 5706 5707 5707 5708 5709 5709 5710 5710 5710 5710 5710 5710 5710 5710 5710 5710 5710 5710 5710 5710 5711 5711 5710 5709 5708 5706 5707 5708 5707 5707 5708 5707 5708 5708 5708 5708 5708 5708 5708
5675 5676 5676 5677 5678 5678 5679 5680 5680 5681 5682 5683 5684 5685 5686 5686 5687 5687 5688 5689 5690 5691 5691 5692 5692 5693 5694 5693 5694 5695 5695 5697 5697 5698 5699 5698 5698 5698 5699 5699 5700 5701 5702 5703 5703 5703 5704 5704 5704 5705 5705 5705 5706 5706 5706 5707 5707 5708 5708 5707 5707 5708 5708 5708 5708 5708 5708 5708 5708 5708 5708 5708 5708 5707 5703 5704 5705 5704 5704 5704 5704 5705 5705 5705 5705 5706 5706 5706
5671 5671 5672 5673 5674 5674 5675 5676 5677 5678 5678 5679 5681 5682 5683 5683 5683 5683 5685 5686 5687 5688 5689 5689 5689 5690 5691 5691 5692 5692 5692 5694 5694 5695 5696 5695 5694 5695 5696 5697 5698 5698 5699 5701 5701 5700 5702 5702 5702 5703 5702 5703 5704 5704 5704 5705 5704 5705 5705 5705 5706 5706 5706 5706 5706 5705 5705 5705 5705 5705 5705 5705 5706 5704 5701 5701 5702 5701 5701 5701 5701 5702 5702 5702 5703 5703 5704 5704
5667 5667 5667 5670 5671 5670 5671 5672 5672 5674 5675 5676 5677 5678 5679 5679 5679 5680 5682 5682 5683 5684 5685 5686 5686 5686 5688 5689 5689 5689 5690 5691 5691 5692 5693 5692 5691 5692 5693 5694 5695 5696 5697 5698 5698 5698 5699 5699 5700 5700 5699 5700 5702 5701 5701 5702 5702 5702 5702 5703 5704 5703 5703 5703 5703 5703 5703 5702 5702 5701 5702 5702 5702 5700 5699 5699 5698 5698 5699 5698 5698 5699 5699 5700 5700 5701 5701 5701
5663 5662 5662 5666 5667 5666 5667 5668 5669 5670 5671 5672 5674 5674 5675 5675 5676 5676 5678 5679 5680 5680 5681 5682 5682 5683 5684 5685 5686 5686 5687 5687 5689 5689 5689 5689 5688 5688 5689 5691 5692 5693 5694 5695 5695 5694 5695 5696 5697 5698 5697 5697 5698 5697 5698 5699 5700 5700 5700 5700 5701 5700 5700 5699 5700 5701 5700 5699 5699 5698 5698 5698 5697 5696 5697 5697 5696 5694 5695 5695 5695 5695 5696 5697 5698 5698 5698 5699
5659 5657 5658 5662 5662 5662 5663 5664 5665 5666 5667 5668 5669 5670 5670 5672 5672 5672 5674 5675 5676 5677 5677 5678 5679 5679 5680 5682 5682 5683 5683 5684 5686 5686 5685 5687 5684 5682 5685 5689 5689 5689 5691 5691 5690 5690 5692 5692 5693 5694 5694 5695 5695 5694 5694 5696 5697 5697 5697 5697 5698 5697 5697 5696 5696 5697 5696 5696 5696 5695 5694 5693 5692 5693 5694 5694 5693 5692 5691 5691 5691 5692 5693 5694 5695 5695 5695 5696
5655 5654 5655 5657 5658 5658 5659 5660 5661 5662 5664 5664 5665 5665 5666 5668 5668 5668 5670 5672 5672 5673 5673 5674 5675 5676 5677 5677 5678 5679 5679 5680 5682 5681 5681 5682 5679 5678 5682 5685 5685 5685 5687 5686 5685 5686 5689 5688 5688 5689 5690 5691 5692 5691 5691 5692 5693 5693 5693 5694 5694 5694 5694 5693 5693 5692 5691 5692 5693 5691 5691 5690 5688 5688 5689 5689 5689 5689 5688 5687 5687 5688 5688 5689 5690 5691 5691 5692
5652 5651 5651 5653 5653 5654 5655 5656 5657 5658 5660 5660 5660 5661 5662 5663 5664 5665 5666 5667 5668 5668 5669 5671 5671 5672 5673 5673 5674 5676 5675 5675 5677 5677 5678 5676 5674 5676 5680 5680 5681 5681 5681 5682 5681 5682 5684 5684 5683 5685 5685 5687 5688 5688 5688 5687 5687 5687 5687 5689 5688 5689 5689 5689 5689 5688 5687 5689 5690 5687 5687 5687 5684 5683 5683 5684 5685 5685 5684 5683 5683 5684 5684 5684 5685 5686 5686 5687
5648 5648 5647 5648 5649 5650 5651 5652 5653 5654 5655 5656 5656 5657 5658 5658 5660 5661 5662 5662 5663 5664 5666 5666 5666 5668 5669 5669 5670 5672 5671 5671 5673 5673 5673 5672 5671 5673 5675 5675 5676 5675 5676 5678 5678 5678 5679 5679 5679 5680 5681 5682 5684 5685 5684 5682 5681 5681 5682 5683 5683 5683 5684 5685 5684 5684 5684 5686 5686 5684 5684 5683 5680 5679 5679 5679 5680 5680 5680 5679 5679 5679 5680 5679 5680 5681 5681 5682
5644 5644 5644 5645 5645 5646 5646 5647 5649 5650 5650 5651 5652 5653 5654 5654 5654 5656 5657 5657 5658 5660 5661 5661 5662 5664 5665 5664 5666 5667 5667 5667 5669 5668 5669 5669 5668 5668 5670 5672 5671 5670 5672 5674 5673 5672 5674 5674 5675 5675 5676 5677 5679 5679 5678 5677 5677 5677 5677 5678 5679 5678 5679 5680 5679 5679 5679 5680 5679 5680 5680 5679 5677 5677 5675 5673 5674 5674 5674 5674 5674 5674 5674 5675 5675 5675 5676 5676
5640 5640 5641 5641 5641 5642 5642 5643 5644 5645 5645 5646 5647 5648 5650 5650 5649 5651 5653 5652 5653 5656 5656 5657 5658 5659 5660 5660 5661 5663 5663 5663 5664 5664 5664 5666 5664 5662 5665 5668 5666 5666 5668 5668 5667 5668 5668 5668 5670 5670 5670 5671 5672 5672 5673 5672 5672 5672 5671 5673 5674 5673 5674 5674 5673 5674 5675 5673 5673 5676 5676 5674 5674 5674 5670 5668 5669 5670 5669 5669 5669 5668 5668 5669 5669 5669 5669 5669
5635 5635 5636 5637 5637 5637 5638 5639 5640 5640 5641 5642 5643 5643 5645 5646 5646 5646 5647 5647 5648 5650 5651 5651 5653 5654 5655 5655 5656 5657 5659 5658 5658 5659 5660 5661 5661 5658 5660 5663 5661 5661 5663 5662 5662 5663 5663 5663 5664 5664 5664 5665 5665 5666 5666 5665 5665 5665 5665 5666 5667 5667 5667 5667 5667 5668 5669 5666 5667 5670 5669 5668 5669 5668 5666 5664 5664 5665 5665 5664 5664 5663 5663 5663 5663 5663 5663 5663
5631 5631 5631 5632 5633 5633 5633 5635 5636 5636 5636 5637 5638 5638 5639 5641 5641 5641 5641 5642 5643 5644 5645 5646 5648 5649 5649 5650 5651 5652 5653 5652 5653 5654 5654 5655 5656 5654 5655 5656 5655 5655 5657 5657 5656 5657 5657 5657 5658 5658 5657 5658 5659 5660 5659 5659 5658 5658 5658 5658 5659 5659 5660 5660 5659 5661 5661 5660 5661 5662 5661 5662 5663 5662 5662 5661 5660 5659 5659 5659 5659 5658 5658 5658 5658 5657 5656 5656
5626 5626 5627 5627 5627 5628 5629 5630 5631 5632 5632 5633 5632 5633 5634 5635 5636 5635 5635 5637 5638 5639 5640 5641 5642 5642 5643 5645 5645 5644 5646 5647 5647 5648 5648 5649 5650 5650 5650 5650 5650 5650 5650 5652 5651 5650 5650 5652 5652 5651 5650 5651 5653 5653 5653 5653 5652 5651 5652 5652 5652 5652 5652 5653 5653 5653 5654 5654 5654 5654 5653 5654 5656 5656 5656 5656 5655 5654 5653 5654 5654 5653 5653 5653 5652 5652 5651 5651
5622 5622 5622 5622 5622 5623 5624 5625 5626 5627 5627 5627 5627 5628 5629 5630 5630 5629 5630 5632 5633 5633 5635 5636 5636 5636 5638 5639 5637 5637 5640 5641 5640 5641 5642 5643 5644 5645 5644 5644 5645 5645 5645 5646 5646 5644 5644 5646 5646 5645 5643 5644 5647 5646 5646 5646 5644 5643 5645 5646 5646 5646 5646 5646 5647 5647 5647 5646 5647 5647 5646 5647 5649 5649 5649 5649 5649 5648 5648 5649 5649 5648 5647 5646 5646 5646 5646 5646
5617 5617 5618 5618 5618 5618 5619 5620 5621 5621 5621 5622 5623 5623 5624 5624 5624 5624 5626 5627 5627 5628 5629 5630 5631 5632 5632 5631 5630 5632 5634 5634 5634 5636 5636 5637 5638 5638 5638 5638 5639 5640 5640 5640 5640 5639 5639 5639 5640 5638 5637 5638 5641 5640 5639 5637 5635 5636 5639 5640 5639 5639 5639 5639 5640 5641 5641 5640 5639 5639 5640 5642 5642 5641 5641 5642 5642 5642 5642 5642 5642 5641 5640 5640 5640 5640 5640 5640